Location: Unspecified
(22.6800°N, 112.2000°E)
Time: 09:59:27
(UTC+08:00)

S-56A Canister/Altair - Pass Details

Date: 31 July 2021
Orbit: 632 x 2500 km, 38.9° (Epoch: 27 September)

Event Time Altitude Azimuth Distance (km) Brightness Sun altitude
Rises 13:36:26 0° 227° (SW) 4,744 11.7 75.5°
Reaches altitude 10° 13:39:11 10° 225° (SW) 3,979 11.5 74.9°
Maximum altitude 13:50:22 76° 141° (SE) 2,232 11.3 72.4°
Drops below altitude 10° 14:05:18 10° 59° (ENE) 5,155 11.7 69.0°
Sets 14:09:24 0° 58° (ENE) 6,175 11.9 68.1°
